Regional Weather Roundup
Issued by NWS

Home | Current Version | Previous Version | Text Only | Print | Product List | Glossary Off
Versions: 1 2 3 4 5 6 7 8 9 10 11 12 13 14 15 16 17 18 19 20 21 22 23 24 25 26 27 28 29 30 31 32 33 34 35 36 37 38 39 40 41 42 43 44 45 46 47 48 49 50

738
ASUS45 KCYS 040210
RWRWY

WYOMING REGIONAL WEATHER ROUNDUP
NATIONAL WEATHER SERVICE CHEYENNE WY
800 PM MDT TUE MAY 03 2016

NOTE:  "FAIR" INDICATES FEW OR NO CLOUDS BELOW 12,000 FEET
WITH NO SIGNIFICANT WEATHER AND/OR OBSTRUCTIONS TO VISIBILITY.

WYZ001-040300-
YELLOWSTONE NATIONAL PARK

CITY           SKY/WX    TMP DP  RH WIND       PRES   REMARKS
LK YELLOWSTONE   N/A     52  22  30 CALM      30.31S
W YELLOWSTONE  NOT AVBL

$$
WYZ002>013-054>058-071-098>099-040300-
NORTHERN WYOMING

CITY           SKY/WX    TMP DP  RH WIND       PRES   REMARKS
JACKSON        CLEAR     63  25  23 CALM      30.22S
CODY           FAIR      68  28  22 E8        30.14S
GREYBULL       FAIR      73  20  13 S5        30.08S
WORLAND        FAIR      64  40  41 S6        30.11S
SHERIDAN       FAIR      62  46  55 SW6       30.12F
BUFFALO        FAIR      62  36  37 NW5       30.19S
GILLETTE       FAIR      58  42  55 NW5       30.15R
HULETT         FAIR      64  34  32 N3        30.16R
NEWCASTLE      FAIR      64  32  29 N9        30.14R

$$
WYZ014>020-022>026-101>103-040300-
CENTRAL WYOMING

CITY           SKY/WX    TMP DP  RH WIND       PRES   REMARKS
BIG PINEY      FAIR      58  27  30 SW8       30.24S
PINEDALE       CLOUDY    61  27  27 SE3       30.25S
DUBOIS         MOCLDY    57  25  28 SE10      30.25S
LANDER         FAIR      60  36  40 W7        30.17S
RIVERTON       FAIR      63  34  33 E5        30.19S
CASPER         FAIR      58  38  47 NE8       30.20R
DOUGLAS        FAIR      59  39  47 N5        30.19R

$$
WYZ021-027>030-104>119-040300-
SOUTHERN WYOMING

CITY           SKY/WX    TMP DP  RH WIND       PRES   REMARKS
EVANSTON       FAIR      61  23  23 E8        30.24S
KEMMERER         N/A     59  18  20 SE6       30.26S
FORT BRIDGER   CLEAR     63  23  22 E3        30.28S
ROCK SPRINGS   FAIR      59  24  26 S5        30.25S
DIXON          FAIR      59  33  37 N5        30.26S
RAWLINS        FAIR      56  27  32 NW8       30.26R
SARATOGA       FAIR      55  28  35 N3        30.28S
LARAMIE        FAIR      49  35  58 NW8       30.27S
CHEYENNE       FAIR      57  33  40 N7        30.23R
TORRINGTON     FAIR      64  38  38 N7        30.12R
PINE BLUFFS    FAIR      55  37  50 N7        30.19R

$$




USA.gov is the U.S. government's official web portal to all federal, state and local government web resources and services.